Weather History for Valley, United Kingdom

Change the Weather History Date:

Tuesday, October 9, 2012

  Actual Average Record
Temperature  
Mean Temperature 50 °F -  
Max Temperature 57 °F 56 °F 62 °F (2007)
Min Temperature 42 °F 46 °F 41 °F (1998)
Degree Days  
Heating Degree Days 16    
Moisture  
Dew Point 45 °F    
Average Humidity 85    
Maximum Humidity 100    
Minimum Humidity 59    
Precipitation  
Precipitation 0.00 in 0.12 in - ()
Sea Level Pressure  
Sea Level Pressure 30.00 in    
Wind  
Wind Speed 5 mph ()    
Max Wind Speed 9 mph    
Max Gust Speed -    
Visibility 5.7 miles    
Events Fog    
Averages and records for this station are not official NWS values.
T = Trace of Precipitation, MM = Missing Value Source: Averaged Metar Reports

Daily Weather History Graph

Daily Weather History Graph

Search for Another Location

Airport:

Trip Planner

Search our weather history database for the weather conditions in past years. The results will help you decide how hot, cold, wet, or windy it might be!

Date:

Astronomy

Oct. 09, 2012 Rise Set
Actual Time 7:34 AM BST 6:35 PM BST
Civil Twilight 6:59 AM BST 7:09 PM BST
Nautical Twilight 6:19 AM BST 7:49 PM BST
Astronomical Twilight 5:38 AM BST 8:30 PM BST
Moon 12:06 AM BST (10/9) 3:39 PM BST (10/9)
Length of Visible Light 12h 10m
Length of Day
11h 00m
Last Quarter, 39% of the Moon is Illuminated
Oct 9
Last Quarter
Oct 15
New
Oct 22
First Quarter
Oct 29
Full
Nov 7
Last Quarter

Hourly Weather History & Observations

Time (BST) Temp. Windchill Dew Point Humidity Pressure Visibility Wind Dir Wind Speed Gust Speed Precip Events Conditions
12:50 AM 46 °F - 42 °F 83% 29.99 in 19 mi NNE 6.9 mph - -  
12:50 AM 46.4 °F 42.9 °F 42.8 °F 87% 29.98 in 6.2 mi NNE 6.9 mph - N/A   Unknown
1:50 AM 44.6 °F 40.7 °F 42.8 °F 93% 29.98 in 5.6 mi NNE 6.9 mph - N/A   Haze
2:50 AM 48.2 °F - 46.4 °F 93% 29.98 in 3.1 mi NE 9.2 mph - N/A   Haze
3:50 AM 48 °F - 46 °F 91% 29.98 in 3 mi NE 6.9 mph - -   Light Haze
3:50 AM 48.2 °F - 46.4 °F 93% 29.98 in 3.1 mi NE 6.9 mph - N/A   Haze
4:50 AM 48.2 °F - 44.6 °F 87% 29.98 in 2.5 mi NE 8.1 mph - N/A   Haze
5:50 AM 46.4 °F 42.4 °F 44.6 °F 93% 29.98 in 2.5 mi NE 8.1 mph - N/A   Haze
6:50 AM 45 °F - 44 °F 96% 29.98 in 2 mi NNE 4.6 mph - - Fog Patches of Fog
6:50 AM 44.6 °F 42.2 °F 44.6 °F 100% 29.98 in 2.5 mi NNE 4.6 mph - N/A   Partly Cloudy
7:50 AM 42.8 °F 39.3 °F 42.8 °F 100% 29.98 in 2.8 mi ENE 5.8 mph - N/A Fog Fog
8:11 AM 42.8 °F 38.6 °F 42.8 °F 100% 29.98 in 3.1 mi East 6.9 mph - N/A Fog Fog
8:41 AM 44.6 °F 40.7 °F 42.8 °F 93% 30.01 in 5.0 mi East 6.9 mph - N/A   Haze
8:50 AM 46.4 °F 43.5 °F 42.8 °F 87% 30.01 in 5.0 mi East 5.8 mph - N/A   Haze
9:50 AM 51 °F - 47 °F 81% 30.01 in 5 mi ENE 5.8 mph - -   Haze
9:50 AM 50.0 °F - 46.4 °F 87% 30.01 in 5.0 mi ENE 5.8 mph - N/A   Haze
10:50 AM 53.6 °F - 48.2 °F 82% 30.01 in 6.2 mi ENE 2.3 mph - N/A   Mostly Cloudy
11:50 AM 55.4 °F - 48.2 °F 77% 30.01 in 6.2 mi SW 4.6 mph - N/A   Mostly Cloudy
12:50 PM 56 °F - 47 °F 64% 30.02 in 9 mi SW 5.8 mph - -   Scattered Clouds
12:50 PM 55.4 °F - 48.2 °F 77% 30.01 in 6.2 mi SW 5.8 mph - N/A   Mostly Cloudy
1:50 PM 55.4 °F - 44.6 °F 67% 30.01 in 6.2 mi WSW 5.8 mph - N/A   Mostly Cloudy
2:50 PM 57.2 °F - 46.4 °F 67% 30.01 in 6.2 mi West 3.5 mph - N/A   Mostly Cloudy
3:50 PM 56 °F - 46 °F 59% 30.01 in 11 mi NW 5.8 mph - -   Scattered Clouds
3:50 PM 55.4 °F - 46.4 °F 72% 30.01 in 6.2 mi NW 5.8 mph - N/A   Scattered Clouds
4:50 PM 55.4 °F - 46.4 °F 72% 30.01 in 6.2 mi North 4.6 mph - N/A   Mostly Cloudy
5:50 PM 53.6 °F - 46.4 °F 77% 29.98 in 6.2 mi NNW 3.5 mph - N/A   Mostly Cloudy
6:50 PM 51 °F - 46 °F 77% 30.01 in 9 mi NNE 3.5 mph - -   Scattered Clouds
6:50 PM 50.0 °F - 46.4 °F 87% 30.01 in 6.2 mi NNE 3.5 mph - N/A   Scattered Clouds
7:50 PM 48.2 °F - 44.6 °F 87% 30.01 in 6.2 mi NE 3.5 mph - N/A   Partly Cloudy
8:50 PM 46.4 °F - 44.6 °F 93% 30.01 in 5.6 mi East 1.2 mph - N/A   Haze
9:50 PM 45 °F - 43 °F 90% 30.01 in 6 mi ENE 2.3 mph - -   Haze
9:50 PM 44.6 °F - 42.8 °F 93% 30.01 in 5.6 mi ENE 2.3 mph - N/A   Haze
10:50 PM 44.6 °F 41.4 °F 42.8 °F 93% 30.01 in 4.3 mi East 5.8 mph - N/A   Haze
11:50 PM 44.6 °F - 42.8 °F 93% 30.01 in 4.3 mi East 2.3 mph - N/A   Haze